20977 Weather Reports


Display with metric or nautical units.
time (UTC)temp
F
wind
direction
speed
MPH
gust
MPH
rain 1hr
in
rain 24hr
in
rain mn
in
humidity
%
barometer
mb
20260505221248 72 68 2.0 4.0 0.00 0.00 0.00 91 1005.0
20260505220745 72 90 2.0 4.0 0.00 0.00 0.00 91 1005.0
20260505220234 72 45 3.0 4.0 0.00 0.00 0.00 90 1005.1
20260505214702 73 90 0.0 0.0 0.00 0.00 0.00 88 1005.3
20260505213643 74 90 0.0 0.0 0.00 0.00 0.00 88 1005.0
20260505213123 74 113 0.0 2.0 0.00 0.00 0.00 87 1005.0
20260505212627 74 90 0.0 4.0 0.00 0.00 0.00 87 1004.9
20260505212104 74 113 1.0 4.0 0.00 0.00 0.00 86 1004.9
20260505211603 74 90 2.0 4.0 0.00 0.00 0.00 86 1005.0
20260505210540 74 90 2.0 4.0 0.00 0.00 0.00 86 1004.9
20260505205522 75 90 0.0 2.0 0.00 0.00 0.00 84 1005.1
20260505205005 75 68 0.0 2.0 0.00 0.00 0.00 84 1005.2
20260505204503 75 45 1.0 4.0 0.00 0.00 0.00 83 1005.0
20260505203944 75 45 1.0 4.0 0.00 0.00 0.00 83 1005.0
20260505202928 76 23 4.0 7.0 0.00 0.00 0.00 82 1004.8
20260505202649 75 45 4.0 11.0 0.00 0.00 0.00 82 1006.8
20260505202425 76 23 4.0 7.0 0.00 0.00 0.00 82 1004.7
20260505201902 76 45 4.0 7.0 0.00 0.00 0.00 81 1004.7
20260505201631 74 0 4.0 9.0 0.00 0.00 0.00 83 1006.8
20260505201356 77 68 3.0 7.0 0.00 0.00 0.00 80 1004.7
20260505195825 77 45 2.0 6.0 0.00 0.00 0.00 80 1005.0
20260505195326 77 90 3.0 6.0 0.00 0.00 0.00 79 1005.0
20260505194802 78 23 2.0 4.0 0.00 0.00 0.00 78 1005.0
20260505194301 78 90 2.0 4.0 0.00 0.00 0.00 79 1005.0
20260505193744 78 68 2.0 4.0 0.00 0.00 0.00 78 1004.9
20260505193238 78 68 0.0 4.0 0.00 0.00 0.00 78 1005.1
20260505192724 78 45 2.0 4.0 0.00 0.00 0.00 78 1004.9
20260505192216 78 113 1.0 2.0 0.00 0.00 0.00 79 1004.8
20260505191200 77 113 1.0 4.0 0.00 0.00 0.00 80 1005.0
20260505190643 78 113 2.0 4.0 0.00 0.00 0.00 79 1005.1
20260505190140 77 45 1.0 4.0 0.00 0.00 0.00 80 1004.9
20260505185121 76 180 2.0 2.0 0.00 0.00 0.00 81 1005.2
20260505184059 76 225 0.0 0.0 0.00 0.00 0.00 83 1005.5
20260505183541 76 248 0.0 0.0 0.00 0.00 0.00 83 1005.6
20260505183512 71 22 8.0 11.0 0.00 0.00 0.00 89 1007.1
20260505183039 76 293 0.0 0.0 0.00 0.00 0.00 83 1005.6
20260505182526 76 45 0.0 0.0 0.00 0.00 0.00 82 1005.6
20260505182018 76 0 0.0 2.0 0.00 0.00 0.00 83 1005.6
20260505181458 75 68 0.0 4.0 0.00 0.00 0.00 84 1005.7
20260505180958 75 0 2.0 4.0 0.00 0.00 0.00 83 1005.6
20260505180442 75 23 3.0 4.0 0.00 0.00 0.00 84 1005.5
20260505175938 76 0 0.0 2.0 0.00 0.00 0.00 83 1005.3
20260505175421 76 45 1.0 2.0 0.00 0.00 0.00 83 1005.4
20260505174402 75 45 1.0 2.0 0.00 0.00 0.00 85 1005.5
20260505173850 75 45 0.0 4.0 0.00 0.00 0.00 85 1005.4
20260505172837 75 22 2.0 4.0 0.00 0.00 0.00 85 1005.6
20260505171813 74 0 2.0 4.0 0.00 0.00 0.00 86 1005.7
20260505171255 74 45 2.0 4.0 0.00 0.00 0.00 87 1005.8
20260505170755 75 0 4.0 4.0 0.00 0.00 0.00 86 1005.7
20260505165220 73 45 3.0 4.0 0.00 0.00 0.00 90 1006.2
20260505164922 65 0 5.0 7.0 0.00 0.00 0.00 96 1007.1
20260505164157 73 22 4.0 6.0 0.00 0.00 0.00 91 1006.1
20260505163653 73 22 4.0 7.0 0.00 0.00 0.00 90 1006.3
20260505163139 73 22 4.0 8.0 0.00 0.00 0.00 89 1006.2
20260505162638 74 45 5.0 9.0 0.00 0.00 0.00 84 1006.4
20260505162113 74 22 4.0 9.0 0.00 0.00 0.00 83 1006.2
20260505161057 74 22 4.0 9.0 0.00 0.00 0.00 85 1006.7
20260505160551 75 45 6.0 9.0 0.00 0.00 0.00 84 1006.4
20260505152935 74 45 5.0 9.0 0.00 0.00 0.00 84 1006.7
20260505152428 74 22 7.0 11.0 0.00 0.00 0.00 84 1006.7
20260505151917 74 22 8.0 11.0 0.00 0.00 0.00 84 1006.9
20260505151411 75 45 7.0 11.0 0.00 0.00 0.00 83 1006.6
20260505150900 75 0 7.0 13.0 0.00 0.00 0.00 82 1006.8
20260505150351 74 22 6.0 13.0 0.00 0.00 0.00 84 1006.8
20260505140145 71 22 8.0 11.0 0.00 0.00 0.00 88 1007.0
20260505124924 66 22 5.0 7.0 0.00 0.00 0.00 94 1007.2
20260505124410 66 0 4.0 8.0 0.00 0.00 0.00 95 1006.9
20260505123905 66 23 4.0 8.0 0.00 0.00 0.00 95 1007.2
20260505123353 66 0 4.0 7.0 0.00 0.00 0.00 95 1007.4
20260505121823 65 23 5.0 7.0 0.00 0.00 0.00 95 1007.1
20260505121315 65 23 4.0 8.0 0.00 0.00 0.00 95 1007.1
20260505115759 65 0 5.0 7.0 0.00 0.00 0.00 96 1006.8
20260505115231 65 0 4.0 7.0 0.00 0.00 0.00 96 1006.7
20260505114721 65 23 3.0 7.0 0.00 0.00 0.00 97 1006.6
20260505114214 64 0 4.0 6.0 0.00 0.00 0.00 97 1006.7
20260505113703 64 23 4.0 6.0 0.00 0.00 0.00 97 1006.5
20260505112649 64 0 3.0 4.0 0.00 0.00 0.00 97 1006.6
20260505112142 64 45 2.0 4.0 0.00 0.00 0.00 97 1006.2
20260505111626 63 0 2.0 4.0 0.00 0.00 0.00 97 1006.4
20260505111107 63 23 3.0 4.0 0.00 0.00 0.00 97 1006.6
20260505110605 63 0 4.0 6.0 0.00 0.00 0.00 97 1006.7
20260505110351 57 45 0.0 2.0 0.00 0.00 0.00 96 1005.4
20260505101924 62 23 2.0 2.0 0.00 0.00 0.00 98 1006.3
20260505101609 58 22 0.0 0.0 0.00 0.00 0.00 94 1005.4
20260505101426 62 23 2.0 2.0 0.00 0.00 0.00 98 1006.1
20260505100402 61 23 1.0 2.0 0.00 0.00 0.00 98 1006.0
20260505095939 61 0 2.0 2.0 0.00 0.00 0.00 98 1005.8
20260505095339 61 0 2.0 2.0 0.00 0.00 0.00 98 1005.9
20260505094826 61 23 2.0 2.0 0.00 0.00 0.00 98 1005.4
20260505094323 61 23 2.0 2.0 0.00 0.00 0.00 98 1005.8
20260505093808 61 45 2.0 2.0 0.00 0.00 0.00 98 1005.8
20260505093301 61 45 2.0 2.0 0.00 0.00 0.00 97 1005.7
20260505092749 61 23 2.0 2.0 0.00 0.00 0.00 97 1005.6
20260505091728 60 23 0.0 0.0 0.00 0.00 0.00 97 1005.8
20260505091334 60 45 2.0 2.0 0.00 0.00 0.00 93 1005.5
20260505091217 60 45 0.0 0.0 0.00 0.00 0.00 97 1005.7
20260505090705 60 23 0.0 0.0 0.00 0.00 0.00 97 1005.6
20260505090157 60 45 0.0 2.0 0.00 0.00 0.00 97 1005.5
20260505085136 59 45 2.0 2.0 0.00 0.00 0.00 97 1005.4
20260505085100 60 22 2.0 4.0 0.00 0.00 0.00 92 1005.4
20260505084629 59 45 2.0 2.0 0.00 0.00 0.00 97 1005.5
20260505084156 60 22 2.0 4.0 0.00 0.00 0.00 92 1005.5
20260505084123 59 45 0.0 2.0 0.00 0.00 0.00 97 1005.6
20260505083606 59 45 1.0 2.0 0.00 0.00 0.00 97 1005.6
20260505083057 58 90 0.0 0.0 0.00 0.00 0.00 97 1005.7
20260505082541 57 45 0.0 0.0 0.00 0.00 0.00 96 1005.4
20260505081529 57 45 0.0 2.0 0.00 0.00 0.00 96 1005.6
20260505081017 57 23 0.0 0.0 0.00 0.00 0.00 95 1005.5
20260505080514 57 0 0.0 0.0 0.00 0.00 0.00 95 1005.3
20260505074937 58 22 0.0 4.0 0.00 0.00 0.00 94 1005.7
20260505074423 59 22 2.0 4.0 0.00 0.00 0.00 93 1005.7
20260505073921 60 22 2.0 4.0 0.00 0.00 0.00 93 1005.5
20260505072900 60 22 2.0 4.0 0.00 0.00 0.00 92 1005.3
20260505071323 60 0 2.0 4.0 0.00 0.00 0.00 91 1005.4
20260505070815 60 0 3.0 4.0 0.00 0.00 0.00 91 1005.3
20260505070301 61 0 3.0 4.0 0.00 0.00 0.00 90 1005.2
20260505065803 61 23 4.0 4.0 0.00 0.00 0.00 90 1005.2
20260505065236 61 23 2.0 4.0 0.00 0.00 0.00 90 1005.3
20260505064739 60 23 2.0 4.0 0.00 0.00 0.00 89 1005.3
20260505064218 60 23 3.0 4.0 0.00 0.00 0.00 89 1005.5
20260505063714 60 23 3.0 4.0 0.00 0.00 0.00 89 1005.6
20260505063201 60 23 2.0 4.0 0.00 0.00 0.00 89 1005.7
20260505062653 60 23 2.0 2.0 0.00 0.00 0.00 88 1005.5
20260505061636 60 23 2.0 4.0 0.00 0.00 0.00 88 1005.8
20260505061124 60 23 2.0 4.0 0.00 0.00 0.00 87 1005.8
20260505060855 60 0 2.0 4.0 0.00 0.00 0.00 88 1005.7
20260505055705 59 0 2.0 4.0 0.00 0.00 0.00 89 1005.7
20260505055159 57 0 2.0 4.0 0.00 0.00 0.00 89 1005.5
20260505054144 57 23 2.0 4.0 0.00 0.00 0.00 88 1005.4
20260505053626 57 23 3.0 4.0 0.00 0.00 0.00 88 1005.1
20260505053121 57 23 3.0 4.0 0.00 0.00 0.00 88 1005.6
20260505052601 57 23 3.0 4.0 0.00 0.00 0.00 88 1005.4
20260505052057 57 23 2.0 4.0 0.00 0.00 0.00 88 1005.4
20260505051539 57 23 2.0 4.0 0.00 0.00 0.00 88 1005.4
20260505051052 58 23 2.0 4.0 0.00 0.00 0.00 87 1005.8
20260505050525 58 23 2.0 4.0 0.00 0.00 0.00 86 1005.7
20260505050358 54 45 3.0 4.0 0.00 0.00 0.00 84 1005.1
20260505041344 58 45 2.0 2.0 0.00 0.00 0.00 86 1006.0
20260505040832 58 23 2.0 4.0 0.00 0.00 0.00 86 1005.9
20260505040329 58 0 2.0 4.0 0.00 0.00 0.00 85 1006.0
20260505035817 58 23 2.0 2.0 0.00 0.00 0.00 86 1005.8
20260505035304 58 23 2.0 2.0 0.00 0.00 0.00 86 1006.1
20260505034802 58 23 2.0 2.0 0.00 0.00 0.00 86 1005.9
20260505034237 58 45 2.0 4.0 0.00 0.00 0.00 85 1006.0
20260505033740 58 23 2.0 4.0 0.00 0.00 0.00 85 1005.9
20260505033223 58 23 2.0 4.0 0.00 0.00 0.00 85 1005.9
20260505032724 58 23 2.0 4.0 0.00 0.00 0.00 85 1005.9
20260505032200 58 23 2.0 4.0 0.00 0.00 0.00 85 1005.9
20260505031656 58 23 2.0 4.0 0.00 0.00 0.00 84 1005.9
20260505030637 58 23 2.0 4.0 0.00 0.00 0.00 85 1005.6
20260505030124 58 23 4.0 4.0 0.00 0.00 0.00 85 1005.7
20260505025622 57 45 3.0 4.0 0.00 0.00 0.00 85 1005.5
20260505025059 57 23 2.0 4.0 0.00 0.00 0.00 85 1005.6
20260505024550 57 45 3.0 4.0 0.00 0.00 0.00 85 1005.6
20260505024040 56 23 3.0 4.0 0.00 0.00 0.00 85 1005.6
20260505023532 57 45 4.0 4.0 0.00 0.00 0.00 85 1005.6
20260505023025 57 45 4.0 4.0 0.00 0.00 0.00 84 1005.7
20260505022936 61 23 2.0 4.0 0.00 0.00 0.00 68 1003.4
20260505022516 57 23 3.0 4.0 0.00 0.00 0.00 84 1005.5
20260505021508 56 45 3.0 4.0 0.00 0.00 0.00 84 1005.6
20260505020937 55 45 3.0 4.0 0.00 0.00 0.00 85 1005.5
20260505015802 67 23 2.0 6.0 0.00 0.00 0.00 57 1003.3
20260505014856 54 45 3.0 4.0 0.00 0.00 0.00 86 1005.3
20260505014355 54 45 2.0 4.0 0.00 0.00 0.00 87 1005.4
20260505013837 54 45 2.0 4.0 0.00 0.00 0.00 86 1005.2
20260505013336 54 45 2.0 4.0 0.00 0.00 0.00 86 1005.2
20260505012833 54 45 2.0 4.0 0.00 0.00 0.00 86 1005.2
20260505012313 54 45 2.0 4.0 0.00 0.00 0.00 86 1005.1
20260505011758 54 45 2.0 4.0 0.00 0.00 0.00 86 1005.2
20260505010859 74 0 4.0 11.0 0.00 0.00 0.00 46 1003.7
20260505010737 54 23 2.0 4.0 0.00 0.00 0.00 85 1005.1
20260505010233 54 45 3.0 4.0 0.00 0.00 0.00 85 1005.1
20260505005712 54 45 3.0 4.0 0.00 0.00 0.00 85 1005.1
20260505005208 54 45 3.0 4.0 0.00 0.00 0.00 85 1005.0
20260505004656 54 45 3.0 4.0 0.00 0.00 0.00 85 1004.9
20260505004148 54 45 3.0 4.0 0.00 0.00 0.00 85 1005.0
20260505003128 54 45 2.0 4.0 0.00 0.00 0.00 85 1004.9
20260505002613 53 45 3.0 4.0 0.00 0.00 0.00 85 1005.0
20260505002118 53 45 2.0 4.0 0.00 0.00 0.00 85 1005.1
20260505001812 75 22 7.0 11.0 0.00 0.00 0.00 44 1003.5
20260505000028 53 45 3.0 4.0 0.00 0.00 0.00 84 1004.9
20260504235521 54 45 2.0 4.0 0.00 0.00 0.00 84 1004.8
20260504235006 54 23 2.0 4.0 0.00 0.00 0.00 83 1004.9
20260504233944 55 45 2.0 4.0 0.00 0.00 0.00 81 1004.8
20260504233432 55 45 2.0 4.0 0.00 0.00 0.00 81 1004.7
20260504232931 55 45 2.0 4.0 0.00 0.00 0.00 80 1004.7
20260504232415 54 45 2.0 2.0 0.00 0.00 0.00 81 1004.6
20260504231348 54 23 2.0 2.0 0.00 0.00 0.00 81 1004.2
20260504230846 55 23 2.0 2.0 0.00 0.00 0.00 81 1004.2
20260504230338 55 45 2.0 2.0 0.00 0.00 0.00 80 1004.3
20260504225830 55 45 2.0 2.0 0.00 0.00 0.00 81 1004.5
20260504225322 55 45 2.0 2.0 0.00 0.00 0.00 81 1004.2
20260504224803 55 23 2.0 2.0 0.00 0.00 0.00 79 1004.1
20260504224250 55 23 2.0 4.0 0.00 0.00 0.00 79 1004.0
20260504223750 56 23 2.0 4.0 0.00 0.00 0.00 79 1003.9
20260504223451 74 45 5.0 11.0 0.00 0.00 0.00 43 1004.6
20260504223235 55 23 2.0 4.0 0.00 0.00 0.00 78 1003.6
20260504222729 56 23 3.0 4.0 0.00 0.00 0.00 77 1003.8
20260504222210 57 23 2.0 4.0 0.00 0.00 0.00 76 1003.9
20260504221709 57 23 2.0 2.0 0.00 0.00 0.00 77 1003.8